OV1-13

导读

OV1-13是美国于1968年4月6日发射的科学实验卫星,隶属于轨道飞行器1(OV1)系列。卫星质量约107公斤,运行在倾角99.9°,近地点551公里、远地点9229公里的高偏心轨道上,主要任务是开展空间辐射研究,搭载了测距仪、盖革-米勒计数器等探测仪器,同时测试空间环境对航天材料、轴承和粘合剂的影响。作为冷战早期空间科学探测的一部分,为人类了解近地空间辐射环境提供了早期数据。卫星发射一周后动力系统出现故障,最终终止工作。

基本信息
目录编号:
3173
目录名称:
OV1-13
国际标识:
1968-026A
轨道中心:
EARTH
卫星名称:
OV1-13
卫星全名:
--
卫星状态:
在轨 (已飞行21283 天)
发射日期:
1968-04-06 UTC
国别 :
美国 (US)
星等 :
--
轨道信息
数据来源 国际轨道数据 AOE轨道数据
星历时间 2026-07-13T06:02:57+0800
1天前
查看轨道信息
2026-07-09T15:00:00+0800
5天前
查看轨道信息
半长轴 11267.7km 11267.688km
偏心率 0.3850428 0.3850209
轨道倾角 99.931° 99.933°
近地点辐角 271.935° 274.832°
升交点赤经 42.782° 41.607°
平近点角 45.571° 287.823°
近地点 551.016km 551.255km
远地点 9228.11km 9227.847km
周期 198.387分钟 198.386分钟
每日圈数 7.25855 7.258562
详细信息
使用方式:
暂无
2D轨道图
3D轨道图
轨道高度分析图
轨道倾角分析图
轨道综合分析图
查看轨道综合分析图